Flag for Canada Weather past 2 weeks in Laval, Quebec, Canada

Now
59 °F

Fog.


Feels Like: 58 °F
Forecast: 60 / 78 °F
Wind: 7 mph from West

Location: Montreal / Mirabel

Current Time: Aug 2, 2015 at 7:28:05 AM

Latest Report: Aug 2, 2015 at 7:00 AM


Visibility: 5 mi

Pressure: 29.80 "Hg

Humidity: 94%

Dew point: 57 °F

Location of LavalLocation

Historic Weather in Laval — Graph

°F

Laval temperature yesterday

Maximum temperature yesterday: 73 °F (at 3:00 PM)
Minimum temperature yesterday: 57 °F (at 1:00 AM)
Average temperature yesterday: 64 °F

Past Weeks' High & Low Weather Summary

 TemperatureHumidityPressure
High88 °F (Jul 29, 4:00 PM)100% (Jul 18, 6:00 AM)30.02 "Hg (Jul 18, 6:00 AM)
Low55 °F (Jul 22, 3:00 AM)47% (Jul 23, 3:00 PM)29.50 "Hg (Jul 21, 2:50 PM)
Average69 °F83%29.81 "Hg
* Reported Jul 18 6:00 AM — Aug 2 6:00 AM, Laval, Weather by CustomWeather, © 2015

Note: Actual official high and low records may vary slightly from our data, if they occured in-between our weather recording intervals... More about our weather records

Advertising

Laval weather history for previous 24 hours

 ConditionsComfort  
Time TempWeatherWind HumidityBarometerVisibility
6:00 AM
Sun, Aug 2
57 °FFog.5 mph94%29.79 "Hg45 mi
5:00 AM57 °FPassing clouds.3 mph94%29.78 "Hg25 mi
4:00 AM57 °FPassing clouds.3 mph100%29.78 "Hg25 mi
3:00 AM59 °FPartly cloudy.5 mph94%29.78 "Hg25 mi
2:00 AM59 °FPassing clouds.5 mph94%29.79 "Hg25 mi
1:00 AM59 °FPassing clouds.5 mph100%29.79 "Hg25 mi
12:00 AM61 °FPassing clouds.6 mph94%29.79 "Hg25 mi
11:00 PM
Sat, Aug 1
59 °FPassing clouds.2 mph100%29.79 "Hg25 mi
10:00 PM61 °FPartly cloudy.3 mph94%29.80 "Hg25 mi
9:00 PM61 °FPartly sunny.6 mph94%29.77 "Hg25 mi
8:00 PM63 °FSprinkles. Partly sunny.7 mph88%29.77 "Hg35 mi
7:00 PM68 °FBroken clouds.7 mph69%29.77 "Hg35 mi
6:00 PM70 °FBroken clouds.9 mph60%29.74 "Hg45 mi
5:00 PM72 °FBroken clouds.3 mph61%29.72 "Hg45 mi
4:00 PM73 °FScattered clouds.9 mph61%29.71 "Hg45 mi
3:00 PM73 °FScattered clouds.9 mph61%29.72 "Hg45 mi
2:00 PM72 °FBroken clouds.10 mph65%29.72 "Hg45 mi
1:00 PM72 °FBroken clouds.8 mph65%29.72 "Hg45 mi
12:00 PM70 °FScattered clouds.8 mph69%29.73 "Hg45 mi
11:00 AM68 °FScattered clouds.8 mph73%29.73 "Hg45 mi
10:00 AM66 °FScattered clouds.9 mph78%29.72 "Hg45 mi
9:00 AM64 °FScattered clouds.5 mph88%29.71 "Hg25 mi
8:00 AM63 °FScattered clouds.6 mph94%29.71 "Hg10 mi
7:51 AM61 °FBroken clouds.7 mph100%29.71 "Hg10 mi
7:00 AM59 °FScattered clouds.2 mph100%29.70 "Hg15 mi
Weather by CustomWeather, © 2015

See weather overviewHow to use our weather pages